Location: Chochol
(49.7771°N, 14.9780°E)
Time: 08:46:14
(UTC+00:00)

BREEZE M DEB (TANK) - Pass Details

Date: 09 April 2020
Orbit: 303 x 11878 km, 49.5° (Epoch: 01 June)

Event Time Altitude Azimuth Distance (km) Brightness Sun altitude
Rises 19:17:03 0° 218° (SW) 2,319 5.6 -14.5°
Reaches altitude 10° 19:18:30 10° 209° (SSW) 1,701 4.8 -14.7°
Maximum altitude 19:21:46 40° 137° (SE) 1,174 3.5 -15.2°
Drops below altitude 10° 19:30:21 10° 72° (ENE) 4,507 6.6 -16.3°
Sets 19:37:03 0° 68° (ENE) 7,163 7.7 -17.2°
